[[{"header":{"parameterUnit":"m.s-1","parameterCategory":1,"la1":30.2991,"la2":30.254,"lo1":-89.0895,"lo2":-89.0444,"dy":0.0017,"dx":0.0017,"nx":28,"ny":28,"refTime":"2024-07-05T21:00:00:Z","depth":0,"parameterNumber":2,"parameterNumberName":"U-component_of_WINDS"},"data":[0,0,0,0,0,0,0,0,0,0,0,0,0,0,0,0,0,0,0,0,0,0,0,0,0,0,0,0,0,0,0,0,0,0,0,0,0,0,0,0,0,0,0,0,0,0,0,0,0,0,0,0,0,0,0,0,0,0,4.2329,4.2331,0,4.2539,4.2542,4.2544,4.2514,4.251,4.2507,4.2503,4.2721,4.273,4.2739,0,0,0,0,0,0,0,0,0,0,0,0,0,4.1904,4.1912,4.2329,4.2331,4.2334,4.2539,4.2542,4.2545,4.2514,4.251,4.2506,4.2502,4.2718,4.2729,4.274,0,0,0,0,0,0,0,0,0,0,0,0,0,4.2099,4.1914,4.2328,4.2343,4.2347,4.2538,4.2542,4.2545,4.2515,4.251,4.2505,4.25,4.2715,4.2728,4.2742,4.2932,0,0,4.2783,4.2789,0,0,0,0,0,0,0,0,4.2088,4.2114,4.2339,4.2343,4.2347,4.2495,4.2472,4.2675,4.2516,4.2451,4.2503,4.2497,4.265,4.2669,4.272,4.2942,4.2951,4.2785,4.2793,4.2799,4.2803,0,0,0,0,0,0,0,4.2074,4.2105,4.2412,4.2342,4.2347,4.2341,4.2363,4.251,4.2578,4.2457,4.2455,4.248,4.2652,4.2707,4.2725,4.2955,4.2784,4.2796,4.2805,4.281,4.3343,4.3349,0,0,0,0,0,0,4.2056,4.2094,4.2405,4.2418,4.2202,4.2353,4.2377,4.2453,4.2576,4.259,4.2484,4.2478,4.2686,4.2709,4.2733,4.2963,4.2799,4.2811,4.2819,4.3337,4.3345,4.3351,0,0,0,0,0,0,4.2047,4.2084,4.2397,4.2256,4.2295,4.2366,4.2451,4.246,4.2515,4.2597,4.261,4.2528,4.2683,4.2713,4.2882,4.297,4.2818,4.283,4.333,4.334,4.3348,4.3425,0,0,0,0,0,0,4.2035,4.2081,4.2153,4.2258,4.2303,4.2542,4.2456,4.2468,4.2538,4.2532,4.2642,4.2655,4.2681,4.2862,4.2896,4.2986,4.2841,4.3323,4.3334,4.3345,4.3415,4.3435,4.3453,0,0,0,0,0,4.202,4.2167,4.2157,4.2195,4.2394,4.2547,4.2573,4.2599,4.2545,4.2619,4.2672,4.2651,4.2955,4.288,4.2917,4.3013,4.3317,4.3331,4.3344,4.3406,4.3431,4.3452,0,0,0,0,0,0,4.2072,4.2181,4.2171,4.2356,4.2443,4.2542,4.2635,4.2625,4.2729,4.2719,4.2749,4.2774,4.2945,4.2996,4.291,4.3204,4.3129,4.3151,4.3163,4.3188,4.3206,4.3189,4.2852,0,0,0,0,0,4.2105,4.2219,4.2309,4.2464,4.2507,4.2564,4.2632,4.2645,4.2736,4.2772,4.2838,4.2928,4.3043,4.3119,4.323,4.3423,4.3446,4.3507,4.3526,4.3542,4.3559,4.3665,4.3693,4.3395,4.3395,4.3395,0,0,4.2174,4.2248,4.2318,4.2476,4.2544,4.2662,4.2595,4.2723,4.2811,4.2792,4.2954,4.3006,4.3109,4.329,4.3373,4.3338,4.3647,4.3559,4.357,4.358,4.3681,4.3709,4.3734,4.3404,4.3403,4.3401,0,0,4.236,4.2428,4.2563,4.2634,4.2738,4.2775,4.2808,4.2909,4.2942,4.3106,4.3094,4.32,4.3399,4.3472,4.3535,4.3751,4.3735,4.3786,4.3885,4.3987,4.4011,4.4032,4.4107,4.4134,4.3804,4.3805,4.3805,0,4.2433,4.2609,4.2635,4.2764,4.2834,4.2822,4.296,4.3027,4.3163,4.3212,4.3171,4.342,4.3488,4.3686,4.3738,4.3791,4.3829,4.3772,4.4005,4.4026,4.4046,4.4119,4.4147,4.381,4.3809,4.3809,4.3808,0,4.2693,4.2816,4.2913,4.3043,4.3124,4.3258,4.3304,4.3384,4.3391,4.3432,4.3599,4.3681,4.3808,4.3857,4.3865,4.4057,4.4032,4.3998,4.3923,4.4079,4.4148,4.4176,4.3817,4.3816,4.3814,4.3813,0,0,4.2915,4.3058,4.3093,4.3152,4.3267,4.3363,4.3497,4.362,4.3687,4.3782,4.3894,4.4063,4.4033,4.4105,4.4122,4.4212,4.4376,4.4167,4.417,4.4201,4.4591,4.4613,4.4645,4.4367,4.4373,4.4377,4.4582,0,4.311,4.3344,4.3372,4.358,4.3694,4.3685,4.3801,4.3885,4.3928,4.4032,4.408,4.4198,4.415,4.4193,4.4282,4.4337,4.4454,4.4323,4.4472,4.4477,4.4444,4.4681,4.4706,4.4894,4.4609,4.4613,4.4617,0,4.3369,4.3469,4.3689,4.3788,4.3837,4.394,4.4056,4.4155,4.425,4.4275,4.4356,4.4362,4.45,4.4422,4.4613,4.4523,4.4587,4.4623,4.4631,4.4644,4.4554,4.4699,4.4955,4.4983,4.4659,4.4656,4.4653,0,4.3506,4.3698,4.3853,4.3904,4.4024,4.4097,4.4151,4.4241,4.4313,4.4415,4.4462,4.458,4.4644,4.4735,4.4772,4.4712,4.4962,4.4886,4.4986,4.4985,4.5037,4.5032,4.5305,4.5082,4.5081,4.5081,4.508,0,4.372,4.3854,4.3916,4.4012,4.4162,4.4194,4.4342,4.4393,4.4473,4.4579,4.4581,4.468,4.4725,4.4832,4.4863,4.5016,4.5045,4.507,4.5076,4.5068,4.5065,4.5108,4.5095,4.5088,4.5086,4.5085,4.5084,0,4.3898,4.3945,4.4114,4.4214,4.4242,4.4349,4.4434,4.4528,4.457,4.4704,4.4738,4.4805,4.4931,4.4978,4.5132,4.5153,4.533,4.5326,4.5297,4.5298,4.5394,4.5383,4.5702,4.5745,4.5495,4.5497,4.5499,0,4.403,4.4133,4.4244,4.4314,4.437,4.4484,4.4558,4.4594,4.4671,4.4788,4.4867,4.4992,4.5094,4.5296,4.5359,4.5477,4.5475,4.5579,4.5493,4.5482,4.5475,4.5467,4.5477,4.5594,4.5597,4.5599,4.56,0,4.4259,4.4277,4.4383,4.4498,4.4585,4.4678,4.4767,4.4825,4.4875,4.4962,4.509,4.5169,4.5326,4.5451,4.5572,4.5628,4.5623,4.5627,4.5656,4.5648,4.5626,4.5638,4.5338,4.5619,4.5617,4.5616,4.5615,4.5614,4.4416,4.4507,4.4599,4.4717,4.4788,4.4872,4.4964,4.5018,4.5125,4.5255,4.5271,4.5408,4.5502,4.5664,4.5726,4.5835,4.5807,4.585,4.586,4.5869,4.5875,4.5611,4.5858,4.5857,4.5857,4.5857,4.5856,0,4.4643,4.4702,4.4811,4.4936,4.5029,4.5016,4.5114,4.5193,4.5314,4.5401,4.5501,4.5649,4.577,4.5843,4.5965,4.6038,4.6039,4.6069,4.6063,4.6076,4.5894,4.5856,4.6066,4.6066,4.6066,4.6066,4.6066,4.6066,4.4772,4.4924,4.4954,4.5142,4.5201,4.5334,4.5392,4.547,4.5539,4.5703,4.5803,4.585,4.5933,4.606,4.6171,4.619,4.6234,4.6266,4.6282,4.611,4.6089,4.6068,4.6032,4.6276,4.6276,4.6454,4.6456,4.6457]},{"header":{"parameterUnit":"m.s-1","parameterCategory":1,"la1":30.2991,"la2":30.254,"lo1":-89.0895,"lo2":-89.0444,"dy":0.0017,"dx":0.0017,"nx":28,"ny":28,"refTime":"2024-07-05T21:00:00:Z","depth":0,"parameterNumber":3,"parameterNumberName":"V-component_of_WINDS"},"data":[0,0,0,0,0,0,0,0,0,0,0,0,0,0,0,0,0,0,0,0,0,0,0,0,0,0,0,0,0,0,0,0,0,0,0,0,0,0,0,0,0,0,0,0,0,0,0,0,0,0,0,0,0,0,0,0,0,0,0.4899,0.49,0,0.4971,0.4972,0.4973,0.4969,0.4968,0.4967,0.4966,0.5045,0.5048,0.5051,0,0,0,0,0,0,0,0,0,0,0,0,0,0.4761,0.4764,0.4899,0.49,0.4901,0.4971,0.4972,0.4973,0.497,0.4968,0.4967,0.4966,0.5044,0.5048,0.5051,0,0,0,0,0,0,0,0,0,0,0,0,0,0.4826,0.4764,0.4899,0.4907,0.4909,0.4971,0.4972,0.4973,0.497,0.4968,0.4967,0.4965,0.5043,0.5047,0.5052,0.5112,0,0,0.5066,0.5068,0,0,0,0,0,0,0,0,0.4822,0.4831,0.4905,0.4907,0.4908,0.496,0.4952,0.502,0.497,0.4947,0.4966,0.4964,0.5018,0.5025,0.5042,0.5115,0.5119,0.5066,0.5069,0.5071,0.5072,0,0,0,0,0,0,0,0.4818,0.4828,0.4928,0.4906,0.4908,0.4909,0.4916,0.4965,0.4991,0.4949,0.4949,0.4957,0.5019,0.5037,0.5044,0.512,0.5066,0.507,0.5073,0.5075,0.5246,0.5248,0,0,0,0,0,0,0.4811,0.4824,0.4925,0.493,0.4861,0.4912,0.4921,0.4945,0.499,0.4995,0.4958,0.4956,0.503,0.5038,0.5046,0.5119,0.5071,0.5075,0.5078,0.5244,0.5246,0.5248,0,0,0,0,0,0,0.4808,0.482,0.4922,0.4877,0.489,0.4916,0.4944,0.4947,0.4966,0.4997,0.5002,0.4972,0.5029,0.504,0.5095,0.5122,0.5077,0.5082,0.5242,0.5245,0.5247,0.5266,0,0,0,0,0,0,0.4804,0.4819,0.4841,0.4878,0.4892,0.4969,0.4945,0.495,0.4973,0.4972,0.5012,0.5017,0.5029,0.5088,0.51,0.5128,0.5085,0.524,0.5243,0.5246,0.5263,0.5269,0.5274,0,0,0,0,0,0.4799,0.4845,0.4842,0.4855,0.4921,0.497,0.4979,0.4991,0.4975,0.4998,0.5018,0.5016,0.5117,0.5094,0.5107,0.5136,0.5238,0.5242,0.5246,0.526,0.5268,0.5274,0,0,0,0,0,0,0.4813,0.485,0.4848,0.4906,0.4935,0.497,0.4999,0.4998,0.5033,0.5031,0.5045,0.5054,0.5109,0.5129,0.5102,0.5197,0.5176,0.5183,0.5182,0.5189,0.5194,0.5189,0.5089,0,0,0,0,0,0.4822,0.4858,0.4889,0.4937,0.4952,0.4973,0.4995,0.5001,0.5033,0.5046,0.507,0.5101,0.514,0.5166,0.5203,0.5265,0.5274,0.5292,0.5297,0.5302,0.5308,0.5342,0.535,0.5261,0.5261,0.5261,0,0,0.4843,0.4867,0.4889,0.4941,0.4964,0.5002,0.4984,0.5025,0.5053,0.5052,0.5105,0.5124,0.516,0.5219,0.5246,0.5237,0.5334,0.5307,0.531,0.5314,0.5347,0.5355,0.5362,0.5264,0.5264,0.5263,0,0,0.4899,0.4921,0.4964,0.4987,0.5022,0.5035,0.5045,0.508,0.5092,0.5145,0.5145,0.518,0.5247,0.5272,0.5294,0.5359,0.5358,0.5371,0.54,0.5433,0.544,0.5446,0.5469,0.5478,0.5377,0.5377,0.5377,0,0.4921,0.4977,0.4986,0.5027,0.505,0.5049,0.5093,0.5115,0.5161,0.5177,0.5166,0.5249,0.5273,0.5337,0.5353,0.5371,0.5384,0.5367,0.5438,0.5444,0.545,0.5473,0.5481,0.5378,0.5378,0.5378,0.5378,0,0.5002,0.504,0.5071,0.5113,0.5139,0.5182,0.5198,0.5224,0.5228,0.5243,0.5297,0.5326,0.5369,0.5385,0.539,0.545,0.5443,0.5434,0.5414,0.546,0.5481,0.549,0.538,0.538,0.5379,0.5379,0,0,0.507,0.5115,0.5127,0.5145,0.5183,0.5214,0.5256,0.5297,0.5319,0.535,0.5387,0.5443,0.5434,0.5459,0.5467,0.5496,0.5545,0.5484,0.5485,0.5494,0.5614,0.562,0.563,0.5544,0.5546,0.5547,0.5611,0,0.513,0.5204,0.5213,0.5279,0.5315,0.5314,0.5351,0.5378,0.5394,0.5427,0.5445,0.5484,0.547,0.5485,0.5513,0.5533,0.557,0.5529,0.5579,0.5581,0.557,0.5641,0.5648,0.5706,0.5619,0.562,0.5621,0,0.5211,0.5243,0.5311,0.5343,0.5359,0.5392,0.5429,0.5461,0.5493,0.5502,0.5529,0.5533,0.5577,0.5554,0.5616,0.5588,0.561,0.5622,0.5625,0.5631,0.5604,0.5649,0.5725,0.5734,0.5635,0.5634,0.5633,0,0.5253,0.5314,0.5362,0.5379,0.5417,0.544,0.5458,0.5488,0.5511,0.5545,0.556,0.5599,0.562,0.5651,0.5665,0.5647,0.5726,0.5704,0.5736,0.5735,0.5753,0.5752,0.5834,0.5766,0.5766,0.5766,0.5766,0,0.532,0.5362,0.5382,0.5412,0.5459,0.547,0.5517,0.5534,0.556,0.5594,0.5596,0.5629,0.5645,0.568,0.5692,0.5742,0.5752,0.5761,0.5763,0.5761,0.5759,0.5775,0.5772,0.5768,0.5768,0.5767,0.5767,0,0.5376,0.5391,0.5444,0.5475,0.5484,0.5518,0.5545,0.5575,0.5589,0.5632,0.5643,0.5666,0.5707,0.5724,0.5776,0.5783,0.584,0.584,0.5829,0.583,0.586,0.5857,0.5956,0.597,0.5892,0.5893,0.5894,0,0.5418,0.545,0.5484,0.5506,0.5524,0.556,0.5583,0.5596,0.562,0.5658,0.5683,0.5724,0.5757,0.5823,0.5845,0.5884,0.5885,0.5917,0.5891,0.5887,0.5886,0.5883,0.5887,0.5922,0.5922,0.5923,0.5924,0,0.549,0.5495,0.5528,0.5564,0.5592,0.5621,0.5649,0.5668,0.5684,0.5712,0.5753,0.5779,0.583,0.587,0.591,0.593,0.593,0.5931,0.5941,0.5938,0.5931,0.5935,0.5842,0.5929,0.5929,0.5928,0.5928,0.5928,0.554,0.5568,0.5597,0.5634,0.5656,0.5682,0.5711,0.5728,0.5763,0.5804,0.5809,0.5854,0.5884,0.5938,0.5958,0.5994,0.5986,0.6,0.6003,0.6006,0.6008,0.5925,0.6001,0.6001,0.6001,0.6001,0.6001,0,0.5613,0.563,0.5664,0.5703,0.5732,0.5728,0.5759,0.5784,0.5822,0.585,0.5882,0.5929,0.5969,0.5993,0.6033,0.6056,0.6058,0.6067,0.6065,0.607,0.6013,0.6001,0.6065,0.6065,0.6065,0.6065,0.6065,0.6065,0.5654,0.5701,0.571,0.5769,0.5787,0.5829,0.5847,0.5871,0.5893,0.5946,0.5978,0.5993,0.602,0.6061,0.6097,0.6103,0.6118,0.6128,0.6134,0.608,0.6074,0.6067,0.6056,0.6131,0.6131,0.6187,0.6188,0.6188]}]]